Wind_Speed
18 16 16 14 14 12 10 12 6 15 18 21 23 24 18 18 21 18 26 30 33 33 32 34 36 39 43 43 39 35 33 34 36 38 40 38 36 34 33 33 33 32 34 36 37 37 37 36 37
19 19 19 18 16 11 11 12 18 13 23 22 25 25 26 19 23 25 34 29 33 35 36 39 40 42 43 44 40 36 33 34 37 39 39 37 35 33 33 32 32 30 30 34 36 37 38 37 36
21 22 22 21 19 11 10 16 10 16 28 24 24 29 28 25 31 24 26 31 32 34 36 39 42 45 45 43 41 35 34 37 39 39 36 34 33 32 32 30 28 30 30 31 32 34 37 37 36
23 23 24 24 21 16 21 11 16 32 23 30 22 26 23 36 30 26 27 31 33 32 33 37 41 45 43 40 37 35 35 39 37 34 33 33 33 34 33 34 33 28 26 28 30 32 34 36 36
27 27 27 26 25 24 23 28 25 21 23 28 24 25 26 42 34 31 31 33 35 37 35 37 42 44 42 39 38 36 36 39 35 33 35 35 36 36 37 37 37 34 31 27 27 30 32 33 34
33 34 32 30 24 21 27 34 34 33 24 24 32 26 22 38 40 30 33 36 36 40 38 42 44 44 41 38 38 38 39 38 34 34 35 38 39 40 37 35 36 37 34 31 29 28 31 33 33
38 36 33 30 20 20 30 35 36 29 22 21 25 30 25 29 45 33 39 41 39 43 46 48 44 42 40 37 39 40 41 40 36 35 36 37 39 38 36 34 31 30 29 29 30 31 32 31 33
42 42 41 36 33 28 25 37 34 37 23 29 38 40 32 26 44 40 42 43 45 47 48 48 45 41 37 37 41 41 42 41 38 37 37 37 36 36 34 32 30 29 28 29 29 30 31 34 33
46 48 49 43 37 36 31 29 31 41 47 44 43 43 42 42 42 41 41 42 47 49 50 49 42 38 36 38 40 41 44 42 40 39 37 38 35 35 34 30 29 28 29 29 30 31 31 32 33
53 55 49 44 37 36 34 33 30 35 40 45 45 42 46 42 46 42 41 43 43 45 51 43 36 37 37 39 39 42 45 43 41 38 38 36 37 35 34 31 30 32 31 31 30 30 31 32 33
57 55 48 49 41 39 44 48 41 42 45 44 51 43 47 46 45 43 43 45 45 39 44 37 34 38 38 39 40 44 44 42 36 36 36 36 37 36 35 32 32 32 33 34 30 30 28 29 31
58 59 58 53 50 47 48 48 51 44 48 53 51 41 47 45 44 41 42 44 43 43 41 37 35 39 38 40 41 44 44 34 35 34 34 35 35 33 32 33 34 33 34 30 29 30 29 28 29
65 62 58 58 55 58 57 57 61 60 57 55 53 46 49 50 48 44 43 48 43 38 37 36 36 39 37 39 43 42 38 31 31 35 34 34 33 31 33 32 35 33 31 29 29 28 29 28 28
62 65 69 65 61 58 60 63 64 61 63 54 56 50 53 48 45 43 41 48 39 38 36 34 35 36 36 38 42 34 30 32 33 37 36 34 33 33 33 34 30 29 29 29 27 27 27 27 28
67 67 72 71 69 68 50 63 59 61 59 49 50 56 56 55 43 38 44 45 37 36 33 31 34 33 34 37 32 32 29 34 37 37 38 37 34 34 33 35 31 29 29 27 23 23 25 27 28
65 62 65 54 53 57 47 60 49 49 49 49 49 45 48 49 42 41 46 42 33 29 28 29 31 31 33 30 31 28 31 31 39 38 39 38 36 34 35 35 32 32 30 29 28 26 25 24 25
60 57 53 53 53 53 47 55 49 40 47 46 48 50 46 42 40 40 46 40 29 27 28 28 28 32 30 31 30 30 32 37 39 40 42 39 36 35 35 35 33 32 32 32 30 30 29 30 28
53 55 59 52 51 49 49 47 42 42 48 48 47 48 47 41 43 43 44 37 29 29 30 27 26 31 32 31 32 31 34 38 39 42 42 39 37 36 34 34 35 34 33 32 29 27 27 29 31
57 60 58 50 47 41 47 46 44 49 44 43 41 46 49 43 46 42 39 33 32 30 28 28 28 29 30 30 31 35 38 41 42 44 38 38 37 37 35 36 34 34 31 29 29 27 28 27 27
55 55 50 48 48 37 45 48 45 46 46 43 43 42 48 43 39 36 35 30 32 28 26 27 30 30 31 32 35 38 41 41 41 40 36 37 40 38 37 35 36 32 30 28 26 24 24 25 25
53 52 47 44 43 38 43 50 42 43 43 43 36 39 46 38 31 32 32 27 29 26 23 26 29 30 32 33 36 38 38 38 36 36 37 37 37 34 33 34 31 28 25 20 19 19 20 22 23
51 46 46 47 48 45 35 46 41 42 38 38 41 40 35 28 29 26 29 26 27 23 24 26 28 30 31 32 32 33 33 31 33 33 36 33 30 30 27 25 21 17 15 14 14 13 13 18 19
47 41 44 46 47 40 42 47 40 38 37 33 30 31 29 27 26 25 25 27 24 25 25 28 31 32 31 31 30 30 28 26 30 29 27 29 26 23 19 15 12 11 11 8 7 7 7 8 10
50 46 47 46 43 46 40 49 38 29 34 23 25 26 23 25 27 25 24 23 22 24 26 29 32 32 30 27 26 23 22 25 23 24 25 23 21 14 12 10 8 7 5 2 3 6 6 2 8
60 54 46 46 48 43 39 44 34 26 30 27 25 20 25 29 20 22 20 20 20 23 26 30 30 26 25 21 20 18 20 18 21 22 21 17 14 12 7 4 3 3 2 3 5 6 6 4 6
67 62 59 54 46 40 39 42 28 23 23 15 11 17 19 20 21 20 19 19 20 23 26 26 22 22 18 18 15 17 15 16 19 16 12 12 11 7 3 1 2 3 3 3 4 4 2 2 5
69 63 48 39 25 29 23 24 25 20 15 12 13 14 16 16 18 18 17 18 21 24 24 21 19 16 15 13 12 14 13 16 13 11 8 8 8 4 3 1 1 0 2 5 4 3 4 5 9
57 53 48 50 46 31 22 20 12 17 18 15 14 15 17 16 16 15 16 20 21 20 20 17 15 13 12 10 13 14 12 12 8 6 5 5 3 4 2 1 1 2 3 3 4 6 10 7 10
68 52 58 45 38 32 24 20 25 23 28 18 11 15 14 15 14 15 19 20 20 17 15 14 11 11 10 11 14 11 11 6 5 2 3 3 2 3 2 2 3 4 6 7 7 10 8 10 10
62 51 55 57 47 32 24 21 24 22 25 20 16 15 12 12 13 16 17 18 17 14 12 9 9 9 9 12 9 9 8 3 2 1 3 3 3 3 1 2 5 6 6 4 6 14 17 14 14
Wind_Direction
233 233 237 245 246 257 284 264 251 257 283 285 303 306 307 305 302 292 297 298 300 303 310 312 312 311 309 308 310 312 310 307 309 313 313 309 305 301 294 288 285 280 269 263 260 260 262 259 257
237 235 238 241 248 263 316 263 264 265 258 295 299 304 312 311 302 304 300 302 298 301 306 306 307 307 309 311 312 314 311 311 314 314 311 307 302 298 298 295 287 280 274 267 260 259 258 258 255
241 242 242 242 247 233 266 268 229 241 267 289 299 301 301 297 303 308 299 300 304 307 308 308 311 308 308 313 313 314 314 315 315 313 309 304 299 297 296 293 291 286 276 266 262 260 259 259 257
234 238 242 246 246 257 233 262 258 256 295 293 283 296 296 295 306 304 297 301 304 309 309 312 319 316 313 313 314 313 313 315 315 311 306 302 300 294 293 292 293 288 286 271 261 257 258 257 256
238 237 243 245 248 239 253 246 243 261 269 287 289 298 293 296 305 306 298 297 302 303 307 313 314 314 312 313 313 313 312 317 314 309 305 304 302 297 290 284 285 286 284 277 271 263 256 255 256
241 245 243 246 250 256 263 259 260 266 266 268 280 293 301 299 299 304 301 300 301 306 310 313 314 311 309 310 310 310 315 317 311 309 307 305 303 301 299 294 289 283 277 274 269 265 261 259 255
244 241 241 240 237 237 259 260 266 270 268 275 265 271 287 300 295 307 305 302 308 311 310 315 310 305 305 306 306 312 314 315 308 308 308 307 306 301 298 293 289 283 280 273 267 260 257 257 253
240 243 243 240 238 243 247 259 265 265 262 251 268 280 281 270 288 303 297 305 307 309 310 313 309 301 306 306 308 311 313 312 306 309 308 312 306 301 298 297 293 290 284 281 277 269 261 254 252
247 244 248 248 249 248 248 264 262 264 263 269 274 277 281 283 286 295 294 302 309 308 313 312 306 301 304 302 308 310 311 308 307 309 312 311 304 300 299 298 295 293 290 286 281 276 270 262 256
248 251 248 252 252 254 259 260 263 263 273 271 270 277 277 281 291 288 291 296 303 311 313 311 298 300 300 303 308 309 307 304 304 307 307 306 302 301 304 303 298 295 291 289 283 277 272 266 259
251 254 254 252 251 258 264 259 265 264 264 268 274 276 272 280 284 289 289 297 301 308 301 305 296 296 299 302 308 307 304 301 306 305 304 305 301 301 299 303 298 291 290 289 280 279 275 267 257
251 256 257 259 253 258 262 263 256 266 265 266 271 274 272 274 279 284 289 294 297 305 303 302 300 294 298 300 307 303 299 299 304 305 309 308 305 305 306 304 301 293 292 286 283 277 268 271 259
258 260 259 265 262 264 264 263 265 264 269 274 268 267 272 273 277 284 282 287 297 296 293 297 298 298 299 298 303 303 296 303 311 313 312 310 308 308 307 302 300 296 293 286 283 281 269 268 260
263 263 263 263 266 267 263 268 265 265 273 269 263 264 271 273 280 286 287 287 296 290 286 289 296 297 297 296 297 294 297 304 310 313 313 309 308 307 304 303 299 295 294 288 281 275 268 265 260
264 263 261 262 267 270 270 267 266 269 273 270 262 264 269 266 278 281 283 287 292 287 283 288 292 294 295 296 291 292 295 308 308 312 313 310 308 306 302 302 299 295 289 286 279 275 273 267 263
258 259 259 261 267 270 266 269 269 271 268 263 267 271 264 265 277 281 281 288 289 281 283 287 290 290 289 289 288 295 302 306 306 310 312 308 308 304 300 298 297 295 288 283 281 274 271 266 261
255 260 265 264 265 271 262 274 272 268 262 265 269 270 269 262 270 277 279 287 281 272 281 286 287 287 288 287 293 292 294 297 304 306 308 308 305 302 299 296 294 292 287 287 280 277 267 266 262
261 264 262 267 272 271 277 280 279 271 268 265 264 267 265 264 265 276 275 283 272 274 284 292 287 288 287 283 282 289 295 301 304 304 305 305 303 302 299 296 296 294 290 285 282 274 269 264 260
255 257 262 268 276 270 276 268 267 276 274 270 267 268 268 268 271 274 275 279 268 277 291 289 285 285 287 285 286 290 295 298 299 301 302 301 303 301 297 299 296 294 289 283 279 272 264 260 256
248 254 258 264 266 257 268 271 274 277 277 271 270 270 272 269 270 272 274 270 263 278 282 281 281 289 289 286 285 288 290 293 295 299 300 301 301 298 296 297 296 291 286 282 276 268 262 257 249
244 248 256 264 263 260 264 268 275 276 276 276 273 264 262 267 262 264 264 258 262 273 274 278 286 291 285 283 284 286 289 292 298 300 301 303 300 301 301 297 291 289 289 283 280 275 264 253 249
243 249 250 252 257 263 268 273 267 273 279 281 272 267 271 260 253 255 257 251 266 269 272 278 281 285 281 286 289 290 289 297 301 299 304 303 308 305 300 296 297 298 295 290 283 276 269 251 241
238 239 246 249 252 256 262 269 271 276 285 287 280 267 261 253 246 246 245 253 263 267 272 277 284 284 283 286 287 288 299 301 301 304 306 309 311 304 303 307 314 307 305 301 295 289 277 241 220
229 230 237 244 250 252 263 265 271 283 286 288 276 263 255 236 234 234 238 258 265 264 269 280 288 287 283 287 287 298 298 303 307 307 313 312 314 317 319 313 317 327 332 352 2 1 4 1 186
225 224 228 236 243 260 258 265 279 280 283 281 259 249 234 225 220 223 244 255 257 264 274 285 287 283 285 284 297 298 301 308 311 316 316 318 328 333 320 310 338 316 356 27 22 9 7 55 166
223 223 230 236 241 256 263 268 270 284 293 274 241 224 225 211 219 226 241 244 261 271 287 283 278 287 283 296 294 300 304 308 315 323 323 332 338 343 341 354 314 301 318 9 36 42 62 122 138
221 220 231 222 244 247 258 273 283 280 261 214 218 225 227 220 224 230 234 254 267 275 283 276 282 282 294 298 296 305 304 309 321 322 339 350 353 7 16 319 298 116 74 69 65 89 92 138 154
204 222 210 218 222 237 239 239 240 273 206 206 217 219 215 214 216 222 241 260 274 281 273 276 283 287 298 296 306 307 302 312 322 319 352 16 22 57 58 182 151 107 89 74 14 23 52 145 160
203 204 212 217 219 226 233 249 261 231 219 216 210 216 212 219 214 231 253 274 283 269 275 281 277 297 289 302 312 306 307 309 318 342 44 49 102 66 13 175 141 118 95 91 15 56 104 116 121
209 206 207 208 210 212 225 234 245 230 215 207 202 212 208 208 223 248 272 281 270 270 277 263 289 291 289 311 313 310 299 312 307 72 86 102 147 126 182 217 141 124 127 117 46 48 60 83 81
Height
5892 5893 5894 5895 5899 5897 5897 5898 5897 5897 5896 5895 5895 5895 5892 5890 5889 5890 5884 5880 5875 5872 5868 5865 5862 5859 5857 5855 5856 5855 5854 5852 5849 5847 5845 5842 5840 5838 5837 5836 5835 5835 5835 5835 5834 5834 5835 5837 5839
5889 5890 5892 5892 5895 5895 5901 5896 5897 5895 5893 5891 5891 5890 5886 5885 5883 5883 5875 5875 5871 5869 5866 5863 5859 5856 5853 5850 5850 5850 5849 5847 5845 5841 5839 5836 5834 5832 5830 5828 5828 5828 5828 5828 5827 5827 5828 5829 5832
5885 5886 5888 5889 5890 5894 5900 5892 5891 5890 5887 5887 5888 5884 5883 5880 5877 5880 5875 5871 5868 5865 5863 5860 5855 5852 5849 5847 5845 5845 5843 5841 5839 5837 5834 5831 5829 5827 5825 5823 5821 5821 5821 5821 5821 5821 5821 5822 5823
5881 5882 5884 5886 5888 5893 5892 5893 5892 5885 5885 5882 5884 5884 5879 5873 5874 5874 5871 5869 5865 5862 5859 5857 5852 5847 5845 5843 5841 5840 5839 5837 5834 5831 5829 5826 5824 5822 5820 5817 5815 5814 5813 5813 5813 5814 5813 5815 5817
5876 5877 5878 5881 5884 5886 5887 5885 5884 5886 5885 5882 5880 5879 5877 5863 5868 5868 5866 5864 5861 5856 5855 5854 5849 5844 5841 5839 5836 5835 5835 5832 5828 5825 5823 5821 5818 5816 5813 5811 5809 5808 5807 5806 5806 5807 5807 5808 5810
5871 5873 5874 5877 5880 5883 5880 5876 5878 5878 5880 5881 5874 5874 5874 5865 5861 5863 5861 5858 5855 5851 5850 5847 5844 5840 5837 5835 5834 5831 5830 5827 5824 5821 5818 5815 5812 5809 5806 5804 5803 5801 5800 5800 5800 5800 5800 5801 5803
5867 5867 5869 5872 5877 5881 5875 5870 5873 5873 5874 5877 5872 5868 5871 5868 5851 5859 5855 5851 5851 5848 5844 5842 5841 5836 5833 5831 5830 5827 5826 5822 5820 5817 5814 5811 5807 5803 5800 5798 5796 5794 5793 5792 5792 5793 5793 5793 5795
5860 5860 5861 5865 5870 5871 5870 5864 5868 5866 5869 5864 5864 5862 5864 5863 5853 5854 5851 5848 5844 5842 5840 5838 5833 5830 5828 5827 5825 5822 5820 5817 5815 5812 5808 5805 5802 5798 5793 5791 5789 5787 5786 5785 5785 5785 5785 5786 5787
5852 5851 5853 5860 5864 5864 5864 5864 5865 5856 5857 5859 5859 5856 5855 5852 5850 5849 5848 5845 5842 5837 5834 5830 5826 5825 5824 5822 5820 5817 5815 5812 5809 5805 5801 5798 5796 5792 5788 5786 5783 5782 5780 5778 5778 5778 5777 5778 5779
5842 5843 5848 5854 5856 5856 5858 5858 5857 5855 5852 5852 5853 5854 5850 5845 5842 5842 5842 5840 5839 5835 5827 5825 5822 5820 5819 5817 5815 5812 5809 5806 5804 5800 5796 5794 5791 5787 5782 5779 5777 5776 5774 5772 5771 5770 5770 5770 5772
5834 5835 5842 5844 5849 5850 5849 5848 5849 5846 5845 5847 5847 5848 5843 5840 5836 5835 5835 5832 5831 5833 5827 5821 5818 5816 5815 5813 5809 5808 5804 5801 5797 5794 5791 5788 5784 5781 5777 5774 5772 5769 5767 5764 5763 5762 5762 5762 5764
5824 5827 5831 5836 5838 5839 5839 5842 5837 5838 5838 5839 5841 5841 5835 5834 5830 5830 5829 5828 5828 5823 5819 5815 5813 5812 5810 5807 5804 5801 5799 5796 5793 5790 5786 5782 5778 5775 5772 5768 5764 5762 5759 5757 5756 5755 5755 5755 5756
5816 5821 5821 5824 5827 5828 5828 5827 5827 5827 5832 5833 5833 5832 5828 5827 5825 5826 5825 5822 5821 5820 5815 5810 5807 5807 5806 5802 5799 5797 5795 5791 5788 5784 5781 5777 5772 5769 5765 5762 5759 5755 5752 5751 5750 5749 5749 5749 5749
5811 5810 5811 5814 5814 5816 5816 5815 5817 5818 5820 5825 5823 5824 5820 5819 5819 5818 5818 5815 5816 5812 5808 5804 5802 5802 5801 5799 5794 5794 5790 5785 5784 5779 5776 5773 5767 5764 5759 5756 5754 5750 5747 5744 5743 5743 5743 5743 5743
5796 5794 5798 5800 5806 5804 5807 5799 5807 5814 5813 5814 5814 5816 5812 5810 5812 5813 5811 5808 5809 5805 5801 5799 5797 5796 5795 5793 5790 5788 5785 5781 5778 5775 5771 5767 5762 5758 5753 5750 5747 5744 5741 5739 5738 5737 5735 5735 5736
5781 5784 5783 5796 5798 5796 5799 5789 5802 5806 5803 5802 5804 5805 5802 5803 5806 5805 5802 5801 5802 5799 5796 5794 5792 5790 5789 5787 5786 5782 5779 5778 5772 5769 5765 5762 5757 5752 5747 5744 5741 5737 5734 5732 5730 5729 5728 5729 5729
5771 5773 5781 5784 5788 5789 5789 5783 5793 5798 5793 5793 5795 5795 5796 5796 5799 5798 5793 5795 5795 5792 5790 5788 5787 5784 5783 5782 5779 5777 5775 5772 5768 5763 5759 5754 5750 5745 5741 5737 5733 5730 5727 5724 5722 5721 5720 5720 5721
5769 5769 5770 5775 5784 5779 5778 5777 5782 5785 5783 5785 5786 5785 5786 5789 5790 5791 5787 5789 5788 5786 5784 5782 5781 5779 5777 5776 5774 5771 5769 5766 5762 5758 5753 5748 5743 5738 5734 5730 5726 5722 5719 5715 5713 5711 5711 5712 5713
5760 5759 5762 5770 5775 5771 5771 5771 5775 5773 5774 5776 5777 5777 5777 5781 5781 5780 5781 5782 5782 5779 5777 5777 5775 5774 5772 5770 5768 5766 5763 5760 5755 5751 5747 5741 5736 5731 5726 5722 5717 5713 5709 5706 5705 5703 5702 5702 5703
5748 5750 5756 5762 5765 5766 5764 5761 5763 5765 5762 5766 5768 5772 5768 5768 5771 5773 5774 5775 5775 5774 5772 5772 5770 5769 5767 5765 5762 5760 5757 5753 5749 5743 5740 5735 5728 5723 5719 5714 5708 5704 5700 5697 5695 5694 5693 5694 5695
5737 5742 5751 5755 5755 5754 5754 5749 5756 5757 5755 5755 5759 5758 5753 5759 5764 5766 5765 5769 5769 5767 5767 5766 5765 5763 5761 5759 5756 5754 5750 5746 5742 5737 5731 5727 5721 5716 5710 5705 5700 5696 5693 5690 5688 5687 5686 5687 5688
5728 5737 5742 5744 5744 5745 5751 5741 5747 5748 5750 5749 5746 5747 5750 5753 5754 5757 5758 5762 5761 5761 5761 5761 5760 5758 5756 5753 5751 5748 5745 5740 5736 5731 5724 5718 5714 5708 5703 5697 5694 5691 5687 5685 5683 5682 5681 5680 5682
5723 5729 5732 5734 5735 5739 5741 5736 5741 5744 5743 5741 5739 5740 5743 5747 5749 5751 5753 5756 5756 5757 5757 5756 5754 5752 5751 5748 5746 5743 5738 5735 5730 5724 5719 5714 5708 5703 5698 5693 5690 5687 5684 5683 5682 5680 5679 5678 5679
5713 5718 5722 5725 5729 5727 5736 5730 5733 5741 5734 5736 5734 5734 5738 5741 5743 5745 5749 5750 5752 5752 5751 5751 5749 5747 5745 5743 5740 5737 5734 5729 5725 5720 5715 5708 5703 5699 5695 5691 5688 5686 5685 5684 5682 5680 5678 5677 5678
5696 5705 5710 5716 5718 5720 5728 5725 5730 5735 5729 5728 5728 5730 5731 5733 5738 5741 5744 5746 5747 5747 5747 5745 5744 5742 5740 5738 5735 5732 5729 5725 5721 5716 5710 5705 5701 5697 5693 5691 5689 5688 5687 5685 5683 5681 5680 5680 5681
5681 5691 5700 5706 5713 5718 5720 5719 5727 5727 5725 5723 5725 5727 5728 5732 5735 5737 5740 5742 5743 5743 5743 5741 5740 5738 5736 5733 5731 5728 5725 5722 5717 5712 5707 5703 5699 5696 5694 5692 5692 5690 5689 5687 5685 5684 5683 5684 5684
5668 5673 5702 5707 5716 5718 5723 5719 5720 5722 5722 5723 5724 5726 5727 5730 5733 5736 5738 5739 5739 5740 5739 5738 5736 5734 5732 5729 5727 5725 5721 5718 5713 5710 5705 5702 5699 5698 5696 5695 5693 5692 5691 5690 5688 5686 5687 5687 5687
5655 5682 5684 5694 5703 5712 5718 5722 5721 5720 5722 5721 5723 5724 5726 5728 5731 5733 5735 5736 5736 5736 5736 5734 5732 5730 5728 5726 5724 5721 5718 5715 5711 5708 5704 5702 5700 5699 5698 5697 5696 5694 5693 5693 5692 5690 5689 5690 5690
5644 5657 5671 5691 5698 5707 5714 5718 5715 5717 5719 5720 5722 5722 5724 5727 5729 5731 5732 5732 5733 5733 5732 5731 5729 5727 5725 5723 5721 5717 5715 5712 5710 5707 5704 5702 5701 5700 5700 5699 5698 5697 5697 5696 5695 5694 5692 5691 5690
5638 5652 5665 5674 5688 5700 5710 5714 5710 5712 5716 5718 5721 5721 5723 5725 5728 5729 5729 5729 5730 5730 5729 5728 5726 5725 5723 5721 5718 5715 5713 5710 5708 5706 5703 5702 5702 5701 5702 5701 5701 5700 5700 5700 5700 5697 5694 5694 5693